NOAA 16 DEB, 41056

Orbit data source: Space-Track

NOAA 16 DEB, 41056 is space debris in SSO originally from a launch on Thu, 21 Sep 2000 UTC launched from the Air Force Western Test Range (AFWTR). Debris objects in space refer to the collection of defunct objects orbiting the Earth. Examples of debris include non-operational satellites, rocket bodies, and fragments generated from explosions, collisions, or faulty payload assembly.

Loading next visibility...
Identifier
41056, 2000-055P
Orbit
SSO
Country
Flag of USUS
Related business
Manufacturer
Unknown
Mission
Spacecraft
Bus & Motor
Unknown
Mass
Unknown
Launch date (UTC)
2000-09-21 (26 years ago)
Launch vehicle
Unknown
Launch site
Air Force Western Test Range (AFWTR)
Object type
Payload
Rocket body
Debris
Shape & HBR
Unknown shape, 0.1 m
Radar Cross Section
Small (<0.1 m²)

Expand to show TLE details & history
Last TLE update: 16 hours ago

TLE from 16 hours ago
0 NOAA 16 DEB
1 41056U 00055P   26127.51602500  .00000859  00000-0  47629-3 0  9996
2 41056  98.5578 128.6684 0015852 229.1405 130.8395 14.13722866537744
Epoch: 2026-05-07T12:23Z
TLE epoch observation values (Epoch: 2026-05-07T12:23:04.559Z)
Latitude
-0.00008°
Longitude
77.53837°
Altitude
857.072 km
Speed
7.42 km/s
True Right ascension
08h 34m 40s
True Declination
0° 00' 00"
Sunlit
Object was in daylight at epoch
Visualization orbit readout
Latitude
Unknown
Longitude
Unknown
Altitude
Unknown
Speed
Unknown
Apparent Right ascension
Unknown
Apparent Declination
Unknown
Sunlit
N/A
Visualization observer readout
Local Sidereal Time
12:02:51
Azimuth
Unknown
Elevation
Unknown
Doppler factor
Unknown
Orbital elements
Apogee altitude
855.268 km
Perigee altitude
832.372 km
Semi-major axis
7,221.957 km
Eccentricity
0.00159
Inclination
98.5578°
RAAN
128.6684°
Arg. of periapsis
229.1405°
True anomaly
130.97675°
Mean anomaly
130.8395°
Eccentric anomaly
130.90814°
Mean motion
3.5364 °/min
Orbital period
101.8 mins
BSTAR
0.00047629
Loading maneuver chart data...
Computing Atmospheric mass density...
Loading historical data...
Loading historical data...
Loading historical data...
Loading historical data...
Loading historical data...
Loading historical data...
Loading historical data...

Documentation

Showing up to 5 results
|